Preview of NWS' New Version of Forecast
This preview is not operational and should not be used for support decisions.

Regional Weather Roundup (RWR)

Issued by National Weather Service (NWS)

                            
000
ASUS42 KTBW 220218
RWRFL 
FLORIDA REGIONAL WEATHER ROUNDUP
NATIONAL WEATHER SERVICE TAMPA BAY RUSKIN FL
1000 PM EDT SAT SEP 21 2019

NOTE: "FAIR" INDICATES FEW OR NO CLOUDS BELOW 12,000 FEET WITH NO
SIGNIFICANT WEATHER AND/OR OBSTRUCTIONS TO VISIBILITY.

FLZ001>010-012>015-112-114-115-220300-
PANHANDLE FLORIDA
  
CITY           SKY/WX    TMP DP  RH WIND       PRES   REMARKS
PENSACOLA      FAIR      78  67  68 SE6       30.14R                  
PENSACOLA NAS  FAIR      80  67  64 SE7       30.14R                  
MILTON NAS     FAIR      73  66  78 SE3       30.15R                  
CRESTVIEW      FAIR      71  61  70 CALM      30.17R                  
DUKE FIELD     FAIR      73  64  75 CALM      30.15R                  
VALPARAISO     FAIR      80  65  59 CALM      30.15R                  
MARY ESTHER    PTCLDY    81  65  59 N3        30.13R                  
TRI COUNTY     MOCLDY    73  62  68 CALM      30.18                   
PANAMA CITY    MOCLDY    77  60  55 NE3       30.14R                  
TYNDALL AFB    MOCLDY    78  64  60 NE3       30.14R                  
APALACHICOLA   FAIR      77  66  68 NE6       30.13R                  

STATION/POSITION SKY/WX   TEMP    WIND        PRES    WAVE   SWELL
                          AIR SEA DIR/SP/G            HT/PER HT/PER
                          (F)     (DEG/KT/KT) (MB)    (FT/S) (FT/S)
30.1N   87.6W              83 84  130/ 14/ 19 1020.4R   6/ 8   3/ 8
29.2N   88.2W              83     100/ 17/ 21 1020.1R   7/ 7
28.8N   86.0W                 84   90/ 19/ 21 1019.6R   6/ 8   3/ 8
PANAMA CITY BEAC           82 84  100/  5/  9 1021.3R
TOWER C                    83     100/ 20/ 23 1020.6R
28.5N   84.5W              83      70/ 17/ 21 1020.0R   4/ 5

$$
FLZ011-016>038-118-127-128-134-139-239-220300-
NORTH FLORIDA
  
CITY           SKY/WX    TMP DP  RH WIND       PRES   REMARKS
MARIANNA       MOCLDY    79  61  53 CALM      30.16R                  
TALLAHASSEE    FAIR      79  64  60 E12       30.17R                  
PERRY          FAIR      76  65  68 E6        30.18S                  
LIVE OAK       CLOUDY    75  63  64 NE5       30.19R                  
CROSS CITY       N/A     74  64  70 NE5       30.17R                  
LAKE CITY      FAIR      72  63  73 NE3       30.19S                  
GAINESVILLE    MOCLDY    72  63  73 NE6       30.20R                  
WILLISTON      FAIR      73  64  72 NE3       30.17R                  
PALATKA        CLOUDY    72  64  78 E3        30.18S                  
MAYPORT NAS    MOCLDY    80  67  64 E13       30.18S                  
JACKSONVILLE   MOCLDY    74  65  73 NE6       30.18S                  
JAX NAS        MOCLDY    77  66  68 NE8       30.19R                  
JAX CECIL      NOT AVBL                                               
FERNANDINA BEA MOCLDY    78  67  67 E12       30.19S                  
ST AUGUSTINE   FAIR     N/A N/A N/A E14       30.19R                  
PALM COAST     FAIR      76  62  61 E9G16     30.17S                  

STATION/POSITION SKY/WX   TEMP    WIND        PRES    WAVE   SWELL
                          AIR SEA DIR/SP/G            HT/PER HT/PER
                          (F)     (DEG/KT/KT) (MB)    (FT/S) (FT/S)
SHELL POINT      NOT AVBL
KEATON BEACH               76      60/  7/  8 1021.8R
CEDAR KEY                  77      60/ 11/ 13 1021.2R
FERNANDINA                         60/  2/  6   N/A
30.7N   81.3W                 81                N/A     4/14   2/14
MAYPORT                    80 81   70/ 12/ 15 1022.5R
31.4N   80.9W              80 81   90/ 14/ 16 1022.9R   4/ 6   3/ 6
ST AUGUSTINE               80 81   90/ 16/ 18 1022.0R

$$
FLZ040-043>046-052-053-057-058-063-144-220300-
INTERIOR CENTRAL FLORIDA
  
CITY           SKY/WX    TMP DP  RH WIND       PRES   REMARKS
OCALA          FAIR      75  66  73 NE5       30.17R                  
LEESBURG       FAIR      75  65  70 NE7       30.15F                  
SANFORD        FAIR      75  66  73 NE6       30.15S                  
ORLANDO EXEC   FAIR      76  66  71 NE10      30.14S                  
ORLANDO INTL   FAIR      76  66  71 NE9       30.14R                  
KISSIMMEE      FAIR      77  68  73 NE9       30.14S                  
WINTER HAVEN   FAIR      78  68  71 NE9       30.14R                  
LAKELAND       PTCLDY    77  66  69 E10G17    30.13S                  
BARTOW           N/A     75  70  83 NE8       30.12R                  
SEBRING        FAIR      74  70  87 NE8       30.11S                  
OKEECHOBEE     FAIR      75  68  78 NE6       30.10R                  

$$
FLZ041-047-054-059-064-141-147-220300-
EAST CENTRAL FLORIDA
  
CITY           SKY/WX    TMP DP  RH WIND       PRES   REMARKS
DAYTONA BEACH  FAIR      77  65  66 E12       30.16S                  
DELAND         FAIR      72  64  78 NE5       30.15F                  
NEW SMYRNA BEA PTCLDY    77  64  65 E12       30.17R                  
JFK SPACE CTR  FAIR      78  53  41 E10       30.13S                  
CAPE CANAVERAL FAIR      79  69  73 E10       30.12S                  
PATRICK AFB    FAIR      80  71  73 E18       30.12S                  
MELBOURNE      MOCLDY    81  68  64 NE16G25   30.12R                  
VERO BEACH     MOCLDY    81  68  64 E15       30.11R                  
FT PIERCE      FAIR      80  66  62 E15G22    30.10R                  
STUART         MOCLDY    79  68  69 E17G24    30.11R                  

STATION/POSITION SKY/WX   TEMP    WIND        PRES    WAVE   SWELL
                          AIR SEA DIR/SP/G            HT/PER HT/PER
                          (F)     (DEG/KT/KT) (MB)    (FT/S) (FT/S)
28.5N   80.2W              81 83   70/ 19/ 27 1020.8R   9/15   7/15
28.9N   78.5W              80 80   70/ 19/ 23 1021.6R  11/15   8/15
TRIDENT PIER               79 81   40/ 12/ 18 1021.7R
28.4N   80.5W                 81                N/A     4/13   2/13
27.5N   80.2W                 82                N/A     8/17   5/17

$$
FLZ050-056-061-142-242-148-248-149-249-151-251-155-255-
160-260-220300-
WEST CENTRAL FLORIDA
  
CITY           SKY/WX    TMP DP  RH WIND       PRES   REMARKS
CRYSTAL RIVER  FAIR      72  64  78 NE3       30.15R                  
INVERNESS      FAIR      73  68  83 NE3       30.16R                  
BROOKSVILLE    FAIR      74  64  71 NE6       30.14R                  
CLEARWATER AIR FAIR      77  64  65 E6        30.12R                  
ST PETE CLEARW FAIR      80  67  64 NE14      30.11R                  
TAMPA INTL     FAIR      79  66  64 VRB5      30.12R                  
TAMPA EXEC     FAIR      73  68  83 E3        30.13R                  
PLANT CITY     FAIR      77  70  78 E10       30.14S                  
MACDILL AFB    FAIR      78  67  69 E15       30.10S                  
PETER O KNIGHT CLOUDY    79  70  73 E12G17    30.12R                  
ST PETERSBURG  FAIR      80  70  71 E18       30.10R                  
SARASOTA       FAIR      80  69  69 E12       30.08R                  
VENICE         FAIR      79  70  73 NE14G20   30.09R                  

STATION/POSITION SKY/WX   TEMP    WIND        PRES    WAVE   SWELL
                          AIR SEA DIR/SP/G            HT/PER HT/PER
                          (F)     (DEG/KT/KT) (MB)    (FT/S) (FT/S)
27.3N   84.2W                 84                N/A     5/ 5
CLEARWATER BEACH           80 84   60/ 11/ 14 1019.9R
MIDDLE TAMPA BAY           80     100/ 16/ 19 1019.4R
VENICE                     78 84   60/  9/ 12 1018.7R

$$
FLZ066-069-070-075>078-162-262-165-265-220300-
SOUTHWEST FLORIDA AND KEYS
  
CITY           SKY/WX    TMP DP  RH WIND       PRES   REMARKS
PUNTA GORDA    FAIR      76  72  87 NE9       30.09S                  
FT MYERS       FAIR      80  70  71 E10       30.06R                  
SOUTHWEST INTL FAIR      79  71  76 E14       30.07R                  
NAPLES         FAIR      81  72  74 NE14      30.05R                  
MARCO ISLAND   FAIR      79  71  76 NE12      30.06R                  
IMMOKALEE      FAIR      77  72  83 NE10      30.05S                  
MARATHON       CLOUDY    80  76  87 NE17G25   29.99R                  
KEY WEST NAS   LGT RAIN  81  74  79 NE20G29   29.99S                  
KEY WEST INTL  MOCLDY    80  74  81 NE15G28   30.00R                  

STATION/POSITION SKY/WX   TEMP    WIND        PRES    WAVE   SWELL
                          AIR SEA DIR/SP/G            HT/PER HT/PER
                          (F)     (DEG/KT/KT) (MB)    (FT/S) (FT/S)
NAPLES                             50/ 11/ 18 1017.7R
26.0N   85.6W              85 85   70/ 17/ 23 1017.1
DRY TORTUGAS               82      80/ 26/ 28 1015.9R
SAND KEY                   81      50/ 26/ 31 1013.4R
SOMBRERO KEY               81      40/ 21/ 25 1015.7R
LONG KEY                   81                 1014.4

$$
FLZ067-068-071>074-168-172>174-220300-
SOUTHEAST FLORIDA 
  
CITY           SKY/WX    TMP DP  RH WIND       PRES   REMARKS
W PALM BEACH   MOCLDY    81  69  67 NE15G25   30.09R                  
BOCA RATON     PTCLDY    82  72  69 E22G32    30.06R                  
FT LAUDER-EXEC MOCLDY    80  72  76 NE16G26   30.05R                  
FT LAUDERDALE  MOCLDY    80  72  76 NE18G26   30.04R                  
POMPANO BEACH  CLOUDY    81  71  71 NE21G28   30.06R                  
PEMBROKE PINES LGT RAIN  80  73  79 NE20      30.06R                  
OPA LOCKA      LGT RAIN  80  73  79 NE18G28   30.05R                  
MIAMI          CLOUDY    82  71  69 NE16G28   30.04R                  
WEST KENDALL   MOCLDY    80  75  84 NE16      30.03R                  
HOMESTEAD      DRIZZLE   77  75  94 NE12      30.02R                  

STATION/POSITION SKY/WX   TEMP    WIND        PRES    WAVE   SWELL
                          AIR SEA DIR/SP/G            HT/PER HT/PER
                          (F)     (DEG/KT/KT) (MB)    (FT/S) (FT/S)
PORT EVERGLADES            82      50/ 20/ 27 1017.4R
VIRGINIA KEY               81 83   30/ 14/ 22 1016.4R
LAKE WORTH                 81 82   50/ 24/ 29 1019.4R
FOWEY ROCKS                81 83   60/ 28/ 30 1017.0R
SETTLEMENT POINT           80